Theta_e
338 338 338 338 339 339 338 340 340 340 340 341 342 342 343 342 340 339 337 336 335 334 333 333 333 333 333 333 332 331 329 329 330 332 332 332 331 330 328 324 320 317 316 315 315 316 317 318 319 320 323 325 328 332 333 333 332 332 332 331 331 331 332 332 332 332 330 329 329 329 329 329 328 328 328 329 329 329 329 328 327 327 326 325 323
339 340 340 340 340 341 341 341 341 340 339 339 339 340 341 341 340 340 339 337 336 335 334 333 333 334 334 334 333 332 330 329 330 331 332 332 332 332 330 327 323 321 319 318 317 318 318 319 320 320 322 324 325 329 332 333 333 332 332 331 331 330 330 331 332 331 331 330 329 329 329 329 328 328 328 329 329 330 329 329 328 327 326 325 323
339 339 339 340 340 341 341 340 340 340 337 335 336 337 338 339 339 339 339 338 337 336 335 334 334 334 334 334 334 332 330 330 330 330 331 331 332 332 331 328 325 324 323 322 321 320 320 320 320 321 323 324 325 328 331 333 333 333 332 332 331 330 330 329 330 330 330 330 329 329 329 329 329 329 329 329 330 330 330 329 328 327 326 325 323
342 341 341 341 341 342 341 337 337 338 336 333 332 332 335 338 339 339 339 338 338 337 336 335 335 334 335 334 334 333 331 331 331 331 331 331 331 332 332 330 327 325 325 325 324 323 322 321 321 322 323 325 326 327 330 333 334 333 333 332 331 330 329 329 329 329 330 330 330 329 329 329 329 329 329 329 330 330 330 329 329 328 327 325 322
344 343 343 343 343 344 341 337 336 338 336 333 329 327 329 334 337 339 339 339 338 337 337 336 335 335 335 335 334 333 332 332 332 333 333 333 332 332 332 332 330 328 327 327 326 326 325 324 323 323 324 325 326 327 328 331 333 333 333 332 332 331 330 329 329 329 329 330 330 330 330 330 330 329 329 330 330 331 330 330 329 328 326 324 321
344 344 344 344 344 343 341 339 336 336 336 333 328 327 328 331 333 336 338 339 339 338 337 336 336 336 335 335 335 334 334 334 333 334 334 334 334 334 333 333 332 331 330 329 328 328 327 327 326 326 326 326 325 326 326 328 331 333 333 333 332 332 331 330 330 330 330 330 330 330 330 330 330 330 330 330 330 331 330 330 329 328 325 323 321
340 341 340 340 340 340 339 337 336 336 336 333 328 327 329 331 332 333 336 340 339 338 338 337 337 337 336 336 335 335 335 335 335 335 335 335 336 336 335 334 333 332 332 332 330 329 329 329 328 328 328 327 327 326 326 327 329 331 333 333 333 333 332 331 331 331 331 331 331 331 331 331 331 331 330 330 331 331 330 330 329 327 324 323 321
337 337 337 335 335 336 338 337 336 337 336 332 328 327 328 329 330 330 333 338 340 339 338 338 337 337 337 337 336 335 335 335 335 336 336 336 336 336 336 336 335 333 332 333 333 331 330 330 330 330 329 329 329 328 328 327 328 330 332 333 333 333 333 332 331 331 331 331 332 332 331 331 331 331 331 331 331 330 329 329 329 327 324 324 322
337 337 337 336 334 335 338 339 339 338 335 332 329 328 328 329 331 332 332 336 340 340 339 338 338 338 338 338 337 336 335 334 334 335 336 336 335 335 335 336 336 336 333 333 333 333 332 331 331 331 330 330 330 330 329 329 328 329 331 333 334 334 334 333 332 332 332 332 332 332 332 332 331 330 330 329 328 328 328 328 328 327 325 324 323
336 338 337 337 335 336 337 338 339 337 334 331 330 330 330 329 332 335 335 335 338 341 340 339 339 339 339 338 338 337 336 334 333 333 334 335 335 335 335 335 336 337 336 334 333 334 334 333 332 332 332 332 331 331 331 330 328 328 329 332 334 334 334 334 333 332 332 333 333 332 331 331 329 328 327 327 326 326 326 327 327 326 325 324 323
328 334 336 336 336 337 337 336 337 336 335 334 334 334 334 333 334 336 335 335 338 340 340 339 339 339 339 339 338 338 338 336 334 334 333 334 334 335 334 334 335 337 336 335 333 334 335 335 334 334 333 333 333 333 332 332 330 328 328 330 333 335 335 334 333 333 333 333 333 331 330 329 328 327 326 326 326 326 326 326 326 326 325 324 324
320 324 330 334 336 337 338 337 338 338 338 339 338 338 338 338 337 337 337 338 339 339 338 338 338 338 338 338 338 338 339 338 338 337 335 334 333 334 334 334 335 336 337 336 335 335 336 337 336 336 335 335 335 335 334 334 332 329 327 328 331 334 335 335 333 333 333 333 333 331 330 328 327 327 327 327 327 326 326 326 326 326 325 324 324
320 319 323 330 335 337 338 339 340 340 340 339 337 338 340 340 339 340 340 340 339 338 337 336 336 336 337 337 336 337 338 338 338 337 335 334 334 334 334 335 335 336 337 337 336 336 337 339 339 338 337 336 336 336 336 335 334 332 329 328 329 332 335 335 334 333 333 334 333 332 330 329 328 327 327 327 327 326 326 326 325 325 325 324 324
322 321 320 322 328 333 336 337 338 338 338 337 334 335 338 338 338 339 340 339 337 336 336 335 334 334 334 333 331 331 332 334 336 337 336 335 335 335 335 335 336 337 337 337 337 336 337 339 340 340 339 338 337 337 337 337 336 334 331 329 328 329 333 335 334 333 334 334 333 332 331 330 328 328 328 327 327 326 326 326 325 325 324 323 321
321 321 321 320 322 326 330 332 333 333 334 333 331 332 334 333 334 335 336 335 335 334 334 334 332 330 329 327 326 325 326 328 331 333 335 336 336 337 337 337 338 338 338 338 338 338 338 339 340 341 340 339 338 338 338 337 337 335 333 330 328 328 331 334 334 334 334 334 334 333 332 330 329 329 328 328 327 326 326 325 325 324 322 320 317
319 319 320 320 320 321 322 325 327 329 330 330 329 329 330 329 329 330 330 331 332 332 331 330 328 327 326 326 326 325 324 324 325 328 332 336 337 338 339 339 339 340 340 340 340 339 339 340 341 341 341 340 339 339 339 338 337 336 335 333 331 329 329 332 334 334 334 335 334 333 332 331 330 329 328 328 327 326 325 325 324 323 321 318 315
319 320 320 321 321 321 321 321 322 325 328 330 330 330 328 327 326 326 326 327 328 328 327 325 324 324 325 327 329 328 325 323 324 327 331 335 338 339 339 340 340 340 341 341 341 340 340 341 341 342 341 341 340 339 339 339 338 337 336 335 333 332 330 331 334 335 335 335 335 333 332 331 330 329 328 328 327 326 325 325 324 323 320 317 316
320 321 321 321 322 322 322 321 321 321 323 327 330 330 330 330 329 327 327 326 325 324 324 324 323 323 324 326 329 330 327 324 324 327 330 333 335 335 336 337 339 340 341 341 340 340 340 341 341 342 341 341 340 340 339 339 338 337 336 336 335 334 332 332 334 335 335 335 335 333 332 331 329 329 328 327 327 326 325 325 324 323 320 318 316
319 320 319 320 320 321 322 322 322 321 321 322 324 326 328 330 330 331 331 330 330 328 326 326 326 327 328 329 331 333 331 326 324 325 327 330 331 333 334 335 336 337 338 339 340 340 341 341 342 342 341 340 339 340 340 339 339 338 337 337 336 334 334 334 334 335 335 335 334 333 332 330 329 328 328 327 327 326 325 324 324 322 320 318 315
318 318 317 317 318 319 320 320 321 322 321 321 322 323 324 325 326 329 330 331 332 330 327 326 327 329 330 332 334 335 334 331 328 326 326 326 328 330 333 335 335 335 335 336 338 338 337 337 338 339 340 340 339 339 340 340 339 339 338 337 336 335 334 334 334 334 334 334 333 332 331 330 329 329 328 327 326 325 324 324 322 321 320 317 315
317 317 317 317 316 317 317 318 319 320 321 321 321 321 322 323 323 324 325 327 328 327 326 325 325 327 328 330 331 333 333 333 331 328 327 327 326 327 331 333 333 332 331 331 332 332 330 330 332 334 337 340 341 339 338 340 340 339 339 338 337 336 336 335 334 333 333 332 332 332 331 330 330 329 328 327 327 325 323 322 322 321 319 317 315
319 318 317 317 316 316 316 316 317 318 319 320 320 321 321 322 322 322 322 323 323 324 324 324 324 325 326 327 328 328 329 330 330 328 328 327 326 326 329 330 330 329 330 329 328 328 327 327 328 329 333 338 341 341 339 339 340 340 339 338 338 338 338 337 335 334 333 332 332 331 331 331 330 330 329 328 328 326 324 322 321 320 319 317 316
319 319 319 318 317 316 316 316 316 316 317 318 319 320 320 321 321 321 322 321 321 321 321 322 323 324 324 324 325 326 327 328 329 330 329 327 325 325 327 328 329 330 330 327 326 325 325 325 327 328 329 333 338 341 340 340 341 341 340 339 339 339 339 338 337 336 335 334 333 332 331 331 331 330 329 329 329 328 326 323 321 320 318 316 315
318 318 318 318 318 318 317 317 316 316 316 316 317 318 319 320 321 321 321 322 321 321 321 321 321 322 323 323 323 324 324 326 327 328 328 327 325 325 326 327 328 329 329 327 324 324 324 325 326 327 326 328 334 338 340 341 341 341 340 340 339 339 339 338 337 336 336 336 335 334 333 332 331 330 330 329 329 328 326 323 320 319 318 316 314
317 318 318 318 318 318 318 318 317 317 316 316 317 317 318 319 319 320 321 321 321 321 322 322 321 322 322 322 322 322 322 323 325 326 326 326 325 324 325 327 327 328 328 326 323 323 324 325 326 328 329 329 332 337 340 341 341 341 341 340 340 339 339 339 339 337 337 337 336 335 334 332 331 330 329 328 328 327 325 322 320 318 317 315 313
316 316 317 318 318 318 318 318 318 318 317 317 317 316 316 317 318 319 320 321 321 321 321 321 321 322 321 321 321 321 321 321 322 323 324 325 326 325 325 326 327 328 329 327 323 322 323 324 327 331 334 336 337 338 340 340 340 340 341 340 340 340 340 339 339 338 338 337 336 336 335 333 332 331 329 327 326 326 324 321 319 318 316 314 313
313 314 315 317 318 318 319 319 318 318 318 318 318 317 316 316 317 317 318 320 320 320 320 320 320 320 321 321 320 320 320 320 321 322 323 324 325 325 325 326 326 327 329 328 325 323 321 323 327 332 336 339 340 340 340 340 341 341 340 340 340 340 340 339 338 338 338 338 337 336 335 334 333 332 329 326 326 326 324 320 318 317 315 314 313
310 312 313 315 316 317 318 318 318 318 318 318 319 318 317 317 317 316 317 318 320 320 319 320 320 320 320 320 319 319 320 319 319 320 322 323 325 326 327 327 327 327 327 326 325 324 324 325 329 333 336 337 338 340 341 340 340 340 340 340 340 340 340 339 337 337 337 336 336 335 334 333 333 331 327 326 326 326 324 320 318 316 314 313 312
308 309 311 313 315 317 317 317 317 318 318 319 318 318 318 319 318 318 318 318 320 323 325 326 326 327 326 326 325 325 325 324 324 325 326 327 329 330 330 330 329 329 327 327 327 329 331 331 332 333 334 331 332 337 341 341 341 341 341 340 340 340 340 339 338 337 337 336 335 335 334 331 330 328 327 327 327 326 323 320 317 315 313 312 311
307 308 309 311 314 316 317 317 317 317 317 318 318 318 318 319 320 323 324 324 324 328 330 330 330 330 330 329 329 330 330 330 331 331 331 331 332 333 333 332 332 331 330 330 330 331 333 334 335 335 335 333 332 334 338 339 340 340 340 340 340 340 339 339 339 338 338 336 335 335 334 332 330 328 327 327 327 325 323 319 316 313 312 311 310
305 306 307 310 315 319 319 319 319 319 319 319 319 319 319 320 323 327 329 329 329 330 330 330 330 330 330 329 329 330 331 332 332 333 332 333 333 334 334 334 334 333 333 333 332 332 333 335 336 337 337 336 335 335 336 337 338 339 339 340 340 340 339 339 338 338 338 336 336 335 334 332 329 328 328 327 326 324 322 319 315 312 310 309 307
304 304 305 307 312 318 320 320 320 320 320 321 321 322 323 325 326 328 328 328 328 329 328 329 329 329 329 328 328 329 330 331 331 331 332 332 333 333 334 334 334 335 334 334 333 333 333 335 336 336 335 335 336 336 336 336 338 338 338 339 339 339 339 339 338 338 337 336 335 335 333 331 329 328 327 326 324 323 321 319 315 312 309 306 304
303 303 305 306 307 312 316 319 321 322 322 324 324 325 326 327 327 327 327 326 327 327 327 328 328 329 329 329 329 329 330 330 330 331 331 331 331 332 332 333 334 335 334 334 333 333 334 334 335 334 333 333 333 334 334 335 337 337 337 337 338 339 339 338 337 336 335 335 335 334 333 331 328 326 325 324 322 321 321 318 315 312 308 304 301
306 306 308 308 307 307 310 314 318 321 323 324 324 324 324 325 325 325 325 324 324 325 325 326 328 328 328 328 329 329 330 330 330 331 331 331 331 331 331 332 333 334 333 332 332 333 333 334 334 333 331 331 332 333 334 335 336 336 336 336 336 337 337 337 336 335 335 335 334 332 330 329 326 325 324 323 321 320 319 317 315 313 308 302 301
310 310 310 310 309 308 309 310 313 316 318 319 320 320 320 320 321 321 321 321 321 321 322 323 324 325 325 325 326 326 327 328 329 329 330 330 330 330 331 331 331 332 332 331 331 332 332 333 333 331 330 330 331 331 332 334 335 335 336 335 335 335 335 334 333 332 333 333 331 329 328 327 325 325 323 321 319 319 319 317 316 314 309 303 301
310 311 310 310 311 310 310 310 311 313 314 315 315 316 317 317 318 318 317 317 318 317 317 318 318 320 321 322 323 324 325 326 327 328 328 328 328 329 329 330 330 330 331 330 329 329 328 328 330 330 330 330 330 330 330 331 332 333 333 332 332 333 333 331 329 329 329 328 327 326 326 324 324 323 322 320 319 318 318 317 317 315 311 305 302
309 310 310 310 311 311 311 311 312 312 313 314 314 314 315 315 315 315 315 315 315 315 315 315 316 317 318 318 318 319 319 319 321 323 324 325 325 325 326 326 326 327 327 326 324 323 322 322 324 327 328 328 329 329 328 329 328 328 327 328 328 329 328 327 327 326 326 325 324 324 323 322 322 321 320 319 318 318 317 317 315 314 311 306 303
308 309 309 310 311 311 311 311 312 312 312 312 312 312 312 312 312 312 312 313 313 312 313 313 314 314 313 312 312 313 314 315 317 319 319 319 320 320 319 319 320 320 320 320 318 317 315 315 317 320 322 323 324 324 324 324 324 324 324 324 325 325 324 324 324 324 324 323 321 320 320 320 320 319 318 318 318 318 317 316 315 313 311 307 304
308 308 309 310 310 311 311 311 311 312 312 311 311 311 311 310 310 310 310 310 310 309 309 309 310 309 309 309 311 312 314 315 314 313 313 313 313 313 313 313 314 314 315 315 315 314 313 313 314 315 316 317 318 319 319 320 320 320 321 321 321 321 321 322 322 321 320 319 319 318 318 317 317 317 316 316 316 316 315 315 314 313 311 308 306
307 308 308 309 309 310 310 310 310 310 310 310 310 310 310 309 308 307 307 307 307 307 307 307 307 307 308 309 309 311 312 311 310 309 310 310 310 310 310 310 310 310 311 311 311 312 312 311 311 312 313 313 314 315 315 316 316 316 316 316 316 317 318 318 318 317 316 315 315 315 315 314 313 313 313 313 313 313 313 313 313 312 311 310 308
307 307 308 308 308 309 309 309 309 309 309 309 310 309 309 308 307 307 307 306 306 306 306 306 306 306 307 308 308 309 309 309 308 308 309 309 309 309 309 308 308 308 308 308 308 309 310 310 309 309 310 310 310 311 311 312 312 312 312 312 313 314 314 314 314 314 314 313 313 312 312 311 311 311 311 311 311 310 310 311 310 310 310 309 308
306 307 307 307 308 308 308 308 308 308 308 308 308 308 308 308 308 307 307 306 306 306 306 306 306 307 307 307 308 308 308 308 308 308 308 308 308 308 308 308 308 307 307 308 308 308 308 308 309 308 308 308 309 309 309 309 309 309 309 310 310 311 311 311 311 311 311 311 310 310 310 309 309 308 308 309 308 308 309 309 308 309 309 308 308
305 306 306 306 306 307 306 306 307 307 307 307 307 307 307 307 307 307 307 307 306 306 306 306 306 306 307 307 307 308 308 308 307 307 307 307 307 307 307 308 307 307 307 307 307 308 308 308 308 308 308 308 308 308 308 308 308 308 309 309 309 309 309 308 309 309 308 308 308 308 308 308 308 307 307 307 307 307 307 307 307 307 307 307 307
304 305 305 305 305 305 306 306 306 305 306 306 306 306 306 307 307 306 306 306 306 305 305 306 306 306 306 306 306 306 306 306 306 306 306 306 306 306 307 307 307 307 307 307 307 307 308 308 308 308 308 308 308 308 308 308 308 309 309 309 309 309 309 308 308 308 308 308 308 308 308 308 307 307 307 307 307 306 306 306 306 306 306 305 305
302 303 303 304 304 304 304 304 305 305 305 306 306 306 306 306 306 306 306 306 306 305 305 305 305 306 305 305 305 305 305 305 305 305 305 305 305 305 305 305 306 306 306 306 307 307 307 307 308 308 308 308 308 308 308 308 308 309 309 309 309 309 309 309 309 309 308 308 308 308 308 307 307 307 307 306 306 306 305 305 305 304 304 304 303
301 301 302 302 302 303 303 303 303 304 304 305 305 305 305 305 305 305 305 305 305 305 305 305 305 305 305 304 304 304 304 304 304 304 304 304 304 304 304 304 305 305 305 305 306 306 306 306 307 307 307 308 308 308 308 308 308 309 309 309 309 309 309 309 309 309 308 308 308 309 308 308 307 307 307 306 306 305 305 305 305 305 304 304 302
300 300 300 301 301 301 301 302 302 303 303 303 303 303 303 303 303 303 303 303 303 303 304 304 304 304 304 304 303 303 303 303 303 303 303 303 303 304 304 304 304 304 304 305 305 305 305 305 305 306 306 306 307 307 308 308 308 308 309 309 309 309 309 309 309 308 308 308 308 308 308 308 308 307 307 307 306 306 306 306 306 306 306 305 304
297 298 299 299 300 300 300 301 301 301 301 301 302 302 302 302 302 302 302 302 302 302 302 302 302 302 302 302 302 302 303 303 303 303 302 302 302 303 303 303 304 304 304 304 305 304 304 304 304 305 305 305 306 306 306 307 307 308 308 308 308 308 309 309 309 309 309 308 308 307 307 307 307 307 307 307 307 307 307 307 307 307 307 306 305
294 295 296 297 298 298 299 299 300 300 300 300 300 300 300 300 301 301 301 301 300 300 300 300 300 300 300 300 301 301 301 301 302 302 302 302 302 302 302 302 302 303 303 303 303 303 303 303 303 304 304 304 305 305 305 306 306 306 307 307 307 307 307 308 308 308 308 308 308 308 308 307 307 307 307 307 307 307 306 306 306 307 307 306 306
291 291 292 293 294 294 295 296 297 298 299 299 299 299 299 299 299 299 299 299 299 299 300 300 300 299 299 299 300 300 300 300 300 300 300 301 301 301 301 301 301 301 301 301 301 301 301 302 302 302 302 303 303 304 304 304 305 305 305 305 305 306 306 307 307 307 307 307 307 307 308 307 307 307 306 306 306 306 307 307 307 306 307 306 306
288 289 289 289 290 290 291 292 292 293 294 295 296 297 297 297 298 298 298 298 298 298 298 299 299 299 299 299 299 299 299 299 299 299 299 299 299 299 300 300 300 300 300 300 300 300 300 301 301 301 301 302 302 302 302 302 302 302 303 304 304 305 305 306 306 306 306 306 306 306 306 307 307 307 307 306 306 306 306 306 306 306 307 306 306
Wind_Speed
47 48 48 46 46 48 49 47 44 43 44 46 47 48 48 48 46 44 44 44 42 40 38 35 34 35 35 34 32 31 32 32 33 34 35 36 34 32 31 31 32 33 34 35 34 32 31 31 31 31 30 31 31 30 28 25 24 23 23 24 24 24 23 24 28 31 30 27 26 26 25 25 25 24 23 24 24 24 24 24 23 22 21 20 18
45 47 48 47 46 46 46 45 43 39 36 35 36 40 43 44 44 43 43 44 44 42 39 36 35 36 36 35 34 32 32 32 31 31 34 36 35 33 32 32 33 33 34 35 34 33 32 31 31 31 30 31 32 31 30 27 26 25 24 25 25 25 24 25 27 30 30 28 26 26 26 26 26 26 25 25 25 25 25 25 25 24 22 20 19
39 43 46 49 48 44 42 41 41 42 40 35 32 32 35 38 40 41 42 43 45 44 42 39 37 37 37 37 35 33 32 32 30 29 32 35 35 34 33 32 33 34 34 34 34 33 33 32 32 32 31 31 32 32 32 30 28 27 26 26 26 25 25 25 27 29 31 29 27 26 27 27 27 26 26 26 26 26 26 26 25 24 23 21 19
36 39 42 44 46 45 42 39 39 41 43 42 39 38 39 40 40 41 42 43 45 46 45 42 39 39 39 38 37 35 34 34 33 31 30 32 34 33 33 33 33 33 34 34 33 33 33 33 33 32 31 31 32 32 33 32 30 29 28 27 27 26 26 26 27 28 30 31 29 27 27 27 27 27 27 27 27 27 26 26 26 25 23 21 19
35 38 40 40 41 41 41 39 38 38 38 39 39 40 44 44 42 41 42 43 45 46 47 45 42 41 40 40 39 38 36 37 37 35 32 31 33 32 32 32 33 33 33 33 33 33 34 33 33 32 33 33 32 32 33 33 32 31 30 29 28 27 26 27 28 28 30 31 30 28 28 28 28 28 28 28 28 28 27 26 26 25 23 21 19
33 35 37 38 38 38 39 39 38 37 36 36 35 36 41 44 42 41 41 43 45 47 48 47 45 43 42 41 41 40 40 40 39 38 36 34 34 33 32 32 32 33 33 32 33 33 34 33 33 33 34 34 33 33 33 33 33 32 31 30 28 27 27 27 28 28 30 31 31 30 29 29 29 29 28 29 29 29 28 27 26 25 24 22 20
25 30 31 32 33 35 36 36 37 37 36 35 33 32 36 41 42 42 41 40 44 47 48 48 46 45 43 43 43 42 42 42 41 40 39 38 37 37 35 34 33 33 34 33 32 33 34 34 33 33 34 34 34 33 33 33 34 33 32 30 29 29 28 28 28 29 30 31 31 31 29 29 29 29 29 29 30 30 28 27 27 25 23 21 20
17 21 25 27 29 31 32 33 34 36 36 35 31 29 32 37 41 42 41 39 42 45 47 47 47 45 45 44 43 43 42 43 43 42 41 40 40 40 39 38 36 35 35 35 33 33 33 34 34 34 34 34 34 33 33 33 34 34 33 31 31 30 29 28 28 28 30 31 31 31 29 29 29 29 29 29 30 30 29 28 27 25 23 22 21
15 17 20 24 26 28 30 32 35 36 36 35 33 29 30 35 38 39 39 38 40 43 45 47 47 46 45 45 44 44 43 43 44 43 43 41 41 41 40 41 40 38 36 37 36 35 34 34 35 35 34 33 33 33 33 33 35 35 34 32 32 31 30 29 28 28 29 30 31 30 30 30 29 28 29 29 29 29 28 28 28 26 24 24 23
13 17 19 21 23 25 27 31 36 38 37 35 35 32 30 33 36 38 38 38 39 40 42 45 45 45 45 45 45 45 45 45 45 45 45 44 43 43 42 42 43 42 38 36 37 37 35 35 35 35 34 33 33 33 33 33 35 37 36 34 33 32 31 30 29 28 29 30 31 30 30 31 29 26 27 27 25 25 26 26 26 26 25 25 25
8 14 19 20 21 21 22 25 31 36 37 34 32 31 31 33 35 38 39 38 38 38 38 40 42 43 43 44 45 46 47 48 48 48 48 47 46 46 45 44 44 43 40 36 36 37 35 35 35 36 35 34 34 33 33 33 34 36 37 36 34 34 33 32 30 29 30 31 31 30 31 31 28 25 24 23 22 23 24 24 25 26 26 26 27
8 9 13 18 21 20 21 23 27 33 34 31 28 28 31 33 35 37 38 38 37 36 35 35 35 36 38 41 43 46 48 49 50 49 49 46 44 46 46 45 44 44 42 39 36 35 35 34 35 37 37 36 35 33 33 32 32 34 36 37 36 35 34 33 31 30 31 31 32 32 32 31 29 26 25 23 23 23 23 24 25 26 26 27 28
7 8 8 11 18 21 22 24 26 30 30 27 26 28 30 33 35 36 37 36 35 33 31 29 28 29 30 32 36 40 43 46 47 48 46 42 40 44 46 45 44 44 43 40 36 35 35 34 35 37 37 37 37 35 33 32 31 32 34 36 38 38 36 35 33 31 31 32 34 34 32 30 30 28 26 24 24 24 24 24 24 25 26 28 28
7 7 7 7 11 16 21 23 24 26 25 25 27 29 30 32 34 35 35 34 32 31 29 29 31 31 29 28 28 31 35 40 42 43 42 41 41 43 44 43 43 42 42 40 37 37 37 35 35 37 38 38 38 36 34 31 30 31 32 35 39 39 38 37 35 33 33 34 35 35 32 30 30 28 26 25 25 26 25 25 24 25 26 26 25
10 9 8 7 7 10 14 18 20 21 22 22 25 27 28 29 30 31 31 31 30 29 29 29 31 30 30 30 29 28 29 33 37 39 39 40 41 42 41 41 41 40 40 40 39 39 39 37 36 37 38 39 39 37 34 31 29 30 31 33 36 38 39 39 37 34 33 34 35 34 31 29 28 27 25 25 26 26 25 25 24 24 24 24 23
14 13 11 10 10 10 11 13 14 17 20 22 24 26 26 26 26 27 28 28 28 27 27 27 28 27 28 30 31 28 24 25 30 34 35 37 39 40 39 40 40 40 39 39 39 39 40 39 38 38 38 40 39 36 33 31 30 30 31 32 33 35 38 38 36 34 32 33 34 32 30 29 28 26 26 27 26 25 25 26 26 25 24 24 24
17 15 14 13 12 12 12 13 13 14 16 20 23 26 26 26 25 26 27 27 26 26 26 27 27 26 27 29 30 29 25 21 23 28 30 32 35 36 36 37 39 39 39 39 39 40 40 41 40 40 40 41 39 36 34 32 32 32 31 31 31 33 37 36 34 33 32 32 33 32 31 30 29 28 28 28 27 27 28 29 29 27 25 26 26
18 17 16 14 13 13 14 15 15 15 15 17 19 21 23 25 25 26 27 26 25 24 24 25 24 24 25 27 28 30 29 24 23 26 29 31 33 34 34 35 36 37 38 38 38 39 41 42 42 42 42 42 41 38 35 35 35 33 32 31 31 33 36 34 32 32 32 32 32 32 31 30 30 29 29 28 28 29 30 31 30 28 27 26 24
21 20 19 18 17 17 17 16 17 17 18 18 17 16 17 19 21 22 24 25 25 23 21 21 22 23 25 27 29 32 32 28 25 27 29 32 35 36 36 36 36 36 35 36 36 37 39 41 43 43 42 41 42 41 39 37 37 36 33 31 32 34 33 30 30 31 31 31 31 30 29 28 27 27 27 27 28 30 31 31 30 28 27 25 22
24 24 24 24 23 22 21 21 20 19 20 21 20 18 17 16 17 19 21 22 22 20 19 19 20 22 24 27 28 31 33 31 29 29 31 33 35 37 37 37 37 37 35 34 33 34 36 39 41 43 42 41 40 40 41 40 38 37 37 36 36 35 30 26 27 29 29 30 29 28 28 27 27 27 26 26 28 30 30 30 30 29 27 24 24
26 27 28 29 29 28 27 26 25 23 22 22 23 22 21 19 18 18 19 19 19 18 18 18 19 18 19 22 24 26 29 31 32 33 34 35 35 36 37 37 36 37 37 35 33 33 36 39 41 43 43 43 40 37 38 40 39 38 40 41 40 36 31 27 26 25 26 28 28 29 30 30 30 29 27 26 27 28 29 29 28 27 26 26 26
26 28 29 31 31 32 32 31 30 28 26 25 25 27 26 24 21 20 20 19 19 18 18 19 20 19 18 18 19 22 24 28 32 34 34 34 34 36 37 37 36 36 36 36 36 36 38 40 42 41 41 43 41 37 36 38 39 39 41 42 41 38 36 33 31 29 29 29 29 31 33 33 33 32 29 27 27 27 27 27 27 26 26 25 25
24 27 29 30 32 33 34 34 34 33 31 29 28 29 30 29 27 24 23 23 22 21 21 21 21 21 20 19 19 19 21 24 28 32 33 32 32 34 36 36 37 37 35 33 34 37 38 39 40 41 40 41 41 38 36 36 38 40 40 41 41 40 40 39 37 35 35 34 34 36 36 35 35 34 31 30 30 28 27 26 25 25 25 24 23
23 26 28 29 30 31 32 33 34 35 35 33 32 31 32 32 31 29 27 26 26 24 23 23 22 22 23 23 22 22 23 23 25 27 29 30 31 33 34 34 35 37 35 31 30 33 37 38 39 40 41 39 38 38 36 35 37 39 39 39 41 43 44 43 42 41 40 40 41 41 39 36 35 35 33 31 30 28 25 24 24 23 24 24 23
24 26 28 30 31 31 31 32 32 33 33 34 34 34 33 33 34 33 32 30 29 28 27 26 25 25 25 26 26 26 27 27 27 25 25 26 28 31 33 34 34 36 36 32 29 30 33 36 38 39 40 38 37 37 37 36 36 37 37 38 41 44 45 46 45 45 45 46 45 43 40 37 37 38 35 31 30 27 24 23 23 23 24 25 24
22 26 29 32 34 34 34 34 33 32 31 31 32 34 34 34 34 34 33 32 31 31 30 29 28 28 28 29 30 30 30 31 32 30 27 25 27 29 31 33 32 34 36 33 29 28 30 33 35 37 39 39 38 39 39 38 36 37 38 39 41 43 45 46 47 46 46 47 47 46 43 39 39 41 38 33 30 28 25 24 24 23 23 24 25
16 21 25 30 34 36 38 37 36 34 32 31 30 31 32 33 34 34 34 34 33 32 31 31 31 31 31 32 32 32 33 34 35 34 31 28 28 28 30 33 32 33 36 35 29 25 28 31 33 34 37 40 41 41 42 42 41 40 41 41 42 44 45 46 46 44 44 45 46 47 46 45 46 46 41 32 28 27 26 24 23 23 23 24 25
15 17 21 27 31 34 37 38 36 35 33 32 31 30 30 32 33 34 35 35 34 33 32 32 33 33 33 33 33 33 35 36 37 36 34 32 30 30 32 34 34 34 36 35 31 28 30 33 34 33 35 38 40 44 46 46 45 44 43 42 42 44 46 47 46 45 45 46 46 46 48 51 52 48 39 31 28 28 26 24 23 23 24 26 27
18 16 18 24 29 31 33 35 35 34 32 30 30 29 29 31 33 33 32 33 32 31 31 31 30 30 31 31 32 33 35 36 36 35 34 34 35 35 35 35 35 35 35 34 35 36 37 38 38 36 36 37 40 44 47 47 48 48 47 45 44 45 45 47 47 46 46 46 46 46 48 52 51 45 39 34 32 30 27 25 24 24 26 27 29
19 17 14 16 26 30 30 32 36 36 33 31 31 30 29 30 31 31 29 30 31 30 29 29 29 29 30 31 31 33 35 35 34 33 33 34 36 37 38 37 37 37 35 33 34 37 40 42 42 39 37 38 40 43 45 47 50 51 50 49 48 47 46 46 45 45 45 44 43 43 46 49 48 45 42 39 35 31 28 26 24 25 27 28 29
24 24 22 11 12 23 25 26 31 33 32 31 30 29 29 29 30 29 27 28 30 30 30 30 30 30 31 31 32 33 34 34 35 34 33 34 35 36 37 38 38 38 35 33 33 34 37 40 42 40 38 39 41 43 46 49 52 53 53 52 51 50 48 45 43 43 44 43 41 42 46 48 47 46 45 41 36 32 28 25 25 26 28 29 30
34 35 35 27 12 12 16 17 20 22 23 24 24 25 27 28 27 25 23 23 25 26 28 29 30 31 32 32 33 34 35 35 36 36 34 34 35 35 36 36 37 36 34 32 32 32 33 36 39 38 37 38 40 42 46 51 54 56 55 54 53 52 50 47 44 44 43 41 41 45 48 48 47 46 44 41 36 31 28 27 28 28 29 29 30
38 40 41 40 34 27 22 21 22 23 24 24 23 22 22 20 19 18 17 16 17 19 21 22 24 26 28 29 31 33 34 34 34 34 33 34 34 35 35 36 36 36 34 32 31 30 31 34 35 34 35 37 39 41 44 48 52 55 56 56 54 51 48 46 46 45 42 40 41 44 46 47 46 43 40 38 35 31 29 29 29 28 27 29 29
38 41 42 43 44 42 37 32 30 28 26 24 22 19 17 15 14 14 13 11 11 12 13 15 17 19 21 23 25 27 28 29 30 30 30 31 32 33 33 34 35 35 34 32 30 29 30 32 33 32 33 37 39 42 44 47 50 53 55 55 53 49 45 46 48 45 41 40 42 43 43 44 42 39 37 36 34 31 30 29 29 27 28 30 30
36 37 39 41 42 42 42 40 37 33 30 27 23 21 19 16 14 12 10 8 7 5 3 4 6 8 12 14 17 18 20 22 23 23 25 26 28 28 29 30 31 32 31 31 30 29 31 32 32 32 35 38 40 41 43 45 49 52 53 53 51 48 46 47 47 44 42 40 38 36 35 36 35 35 35 35 33 31 30 31 30 28 29 31 31
35 35 36 38 38 38 38 39 37 35 33 31 28 25 23 20 17 15 14 12 12 10 9 7 5 3 3 4 6 9 11 12 15 17 18 20 21 22 23 23 24 25 26 26 26 25 26 26 27 29 32 36 38 39 42 45 47 50 51 50 48 46 44 43 41 39 38 34 30 28 29 30 30 30 32 32 30 29 30 32 32 30 31 33 32
34 34 34 34 34 34 34 34 34 32 31 29 27 26 24 22 21 19 18 18 17 16 15 13 11 9 9 8 7 5 3 2 4 6 8 10 12 12 12 13 15 17 18 18 16 15 16 18 22 26 31 35 37 39 41 42 42 41 42 41 40 39 37 34 31 30 29 27 25 25 26 25 24 25 27 27 27 27 29 32 32 31 31 33 32
31 31 32 32 31 31 32 32 31 31 30 29 28 27 26 26 24 23 22 21 20 20 20 18 17 18 17 17 15 11 7 5 4 5 5 3 1 2 3 3 3 5 7 8 8 7 7 11 16 21 26 30 33 33 34 34 33 31 30 30 30 29 26 24 23 22 22 22 23 23 22 21 21 22 23 24 23 24 28 32 33 32 32 33 33
30 29 30 30 30 29 31 31 31 31 31 31 30 29 29 29 29 28 27 26 26 26 26 25 25 25 23 21 18 14 10 10 14 16 17 16 15 14 13 12 10 8 6 5 4 3 3 4 8 12 15 17 18 19 20 20 19 19 20 20 20 19 18 17 17 17 17 17 17 17 18 18 18 19 20 21 22 23 26 31 33 33 32 32 33
31 30 30 29 28 27 29 31 31 31 32 31 31 31 31 31 31 31 31 31 30 30 30 29 30 29 27 25 23 20 20 23 25 25 23 23 22 21 19 18 17 15 13 10 8 5 3 2 1 1 3 5 6 7 8 10 10 10 11 11 10 10 10 11 11 11 10 10 10 11 12 14 15 16 18 19 20 22 25 29 31 32 32 31 32
32 32 31 29 27 25 27 30 30 30 30 30 29 30 31 31 31 31 31 31 31 30 30 30 30 29 27 26 25 24 25 28 28 27 27 27 26 24 23 22 21 19 17 16 15 12 8 7 6 7 7 6 6 5 5 5 5 4 4 4 4 5 5 6 7 7 7 7 8 8 10 12 13 14 15 16 18 21 23 26 29 30 31 31 30
32 32 31 30 28 27 28 29 28 28 28 28 28 28 29 29 29 29 29 29 29 28 28 29 28 26 25 24 24 23 25 26 26 27 27 28 27 26 25 23 22 21 20 19 19 18 15 12 9 8 9 10 10 10 10 9 9 8 8 7 6 5 4 4 4 4 4 5 5 6 7 9 10 11 12 14 17 20 21 24 26 28 29 29 29
30 30 30 30 30 30 30 29 28 29 29 29 28 28 28 28 28 28 27 27 27 27 27 28 27 27 26 26 26 26 27 26 26 25 25 25 26 26 25 23 21 20 19 19 19 20 19 18 16 13 11 11 11 11 10 11 11 12 12 11 10 8 6 5 3 2 2 2 2 3 5 6 7 8 10 11 14 16 18 21 24 26 27 28 28
29 29 29 30 30 31 30 29 29 30 30 29 29 29 29 28 28 28 28 28 28 28 29 29 28 28 28 29 30 31 30 29 28 26 25 24 24 24 24 22 21 20 19 19 17 16 16 17 18 17 15 14 13 12 12 12 13 14 14 13 12 11 9 6 4 3 3 3 2 2 3 4 4 5 7 8 10 13 15 18 21 23 24 25 26
28 28 29 29 30 30 30 29 29 28 28 28 29 30 29 29 29 29 28 28 28 28 28 28 28 28 29 29 30 30 30 30 29 28 26 24 23 23 22 21 20 20 20 20 18 17 15 15 16 17 17 17 16 15 14 13 13 12 12 12 12 12 11 8 6 4 4 3 3 2 1 1 2 3 5 7 9 10 12 13 15 17 19 21 23
25 26 27 28 29 29 29 29 28 27 27 28 28 28 28 28 28 28 28 27 27 27 27 26 26 26 26 27 27 28 28 28 28 28 27 26 24 23 22 21 20 20 20 19 19 18 17 16 15 15 16 16 15 15 14 14 13 12 12 12 11 10 10 9 8 6 5 4 3 2 2 2 2 1 3 6 7 9 10 11 12 14 16 18 21
22 23 23 24 25 26 26 27 27 27 28 28 27 27 27 26 26 26 26 25 26 26 26 25 25 24 24 24 24 25 26 26 26 26 26 25 25 24 23 23 23 22 21 21 20 19 18 17 15 14 14 13 12 12 12 12 12 12 12 12 10 8 7 7 7 6 5 4 2 2 2 2 2 2 2 3 5 7 8 9 11 12 14 15 18
20 20 20 21 21 22 23 23 23 24 25 26 26 27 26 26 26 26 25 25 25 25 25 25 25 24 24 23 22 22 23 23 23 23 24 24 24 24 24 24 24 24 23 22 22 22 21 20 18 17 15 14 13 12 11 11 10 10 10 10 9 8 7 6 6 5 5 4 2 2 1 0 0 1 2 4 5 6 7 7 8 9 12 13 14
19 19 19 19 20 20 21 20 20 20 21 21 22 23 23 24 24 25 25 25 25 25 25 25 25 24 24 23 22 21 21 21 21 21 22 22 22 22 22 23 23 23 22 22 22 22 22 22 21 21 20 19 18 16 15 14 13 11 10 10 10 9 8 8 6 5 5 4 4 4 3 3 2 3 3 4 6 8 10 11 10 9 10 12 13
19 19 19 19 19 19 19 19 18 18 18 18 18 19 19 19 20 20 21 22 23 23 23 23 23 23 23 23 22 21 21 21 21 20 19 19 19 19 19 20 20 20 20 20 20 20 20 20 20 21 22 22 21 20 20 19 18 17 16 14 12 10 9 8 7 7 7 7 6 5 4 3 3 4 5 5 6 6 7 9 11 12 12 12 13
18 18 18 18 18 18 18 18 18 18 17 17 17 17 17 17 17 17 17 18 18 18 19 18 18 19 19 20 20 20 20 19 19 19 19 19 18 18 17 17 17 17 18 18 18 18 18 18 18 19 20 20 21 21 22 22 21 20 19 18 16 14 13 11 9 8 7 7 7 6 5 4 4 5 5 5 5 6 6 6 6 8 8 8 8
Wind_Direction
226 227 227 228 226 226 228 228 230 233 235 235 236 238 239 240 241 242 244 247 247 247 246 245 243 243 243 243 243 242 241 240 240 240 242 242 241 241 242 243 244 244 245 246 245 245 246 247 250 252 255 259 262 264 264 262 259 259 259 259 259 258 257 258 262 268 273 277 279 282 282 282 284 286 288 290 292 293 293 294 294 295 295 294 289
226 227 227 228 227 226 226 227 228 229 231 232 233 234 236 239 242 243 246 249 250 250 250 249 248 247 246 245 244 244 242 240 241 244 245 243 242 242 242 241 241 242 243 244 244 244 245 246 248 250 253 257 260 262 264 263 260 259 258 258 259 258 258 258 262 268 272 275 278 280 281 281 283 285 287 289 290 291 291 291 293 293 294 294 290
230 230 231 231 232 231 231 232 235 238 241 242 242 241 240 241 243 245 248 251 252 254 254 252 252 251 250 249 247 246 244 241 240 245 249 248 245 242 242 242 242 242 242 244 244 245 246 247 248 250 252 255 257 260 262 263 262 260 258 258 259 260 260 260 261 266 270 273 275 277 279 280 282 284 286 287 289 290 290 291 291 291 292 294 291
234 233 234 236 237 237 237 239 239 240 242 245 249 252 251 248 247 247 249 251 253 255 256 255 254 254 253 252 248 245 243 241 239 241 247 252 250 246 244 243 243 243 243 244 246 247 248 248 249 251 254 255 256 258 260 262 262 262 261 260 259 261 262 261 262 264 268 272 273 274 277 279 280 282 283 285 287 289 289 289 288 289 291 292 289
235 234 234 235 237 237 236 236 235 234 237 241 246 250 251 250 251 250 249 250 253 255 256 256 255 255 254 252 250 246 243 242 241 240 242 248 253 252 250 249 247 246 246 246 247 249 250 250 250 253 255 257 257 258 260 261 262 263 263 262 261 261 262 263 263 265 267 270 272 274 275 277 278 280 281 283 285 286 287 286 285 287 289 290 290
236 235 235 236 238 238 238 236 234 234 233 235 241 247 249 249 251 252 251 249 251 253 255 256 257 257 255 253 251 250 248 247 245 243 243 245 249 253 255 257 256 254 252 251 250 250 252 253 253 254 256 257 258 260 261 262 262 264 264 264 263 263 263 264 265 266 267 269 272 273 274 275 276 278 279 281 283 284 284 283 283 286 288 291 293
240 239 240 242 243 241 241 240 238 237 236 237 240 242 245 248 250 253 254 251 250 251 252 254 256 258 258 256 254 253 252 252 250 248 247 247 249 251 253 258 262 263 260 256 255 254 255 256 256 255 257 258 260 261 263 264 263 263 264 265 266 265 265 265 265 266 267 269 271 272 273 274 274 276 277 279 280 280 280 281 283 287 289 292 295
251 246 243 244 246 243 241 241 241 239 239 242 241 236 240 246 249 252 255 255 251 250 251 253 255 257 259 258 258 257 256 256 254 252 250 250 252 252 252 254 258 264 267 265 261 259 258 259 259 258 258 260 261 262 263 264 263 263 263 265 266 266 265 264 265 266 267 268 270 271 271 271 270 271 274 274 275 277 280 283 284 286 288 290 294
254 256 250 245 245 243 240 242 242 239 237 240 241 237 238 245 249 251 253 254 251 249 251 253 254 256 258 259 259 259 259 259 259 257 254 253 254 255 255 255 255 258 263 268 268 265 263 263 262 262 262 262 263 263 264 263 262 261 261 262 265 266 265 264 264 264 265 266 268 269 269 268 267 268 269 271 274 279 281 282 282 284 287 288 291
249 252 253 249 246 243 241 242 242 240 238 238 239 238 239 245 249 248 249 252 252 250 250 252 254 256 258 260 261 260 259 258 259 260 260 259 259 258 258 258 257 256 257 264 269 269 268 268 267 267 266 265 265 264 263 262 260 259 258 259 261 263 264 263 262 261 261 262 265 266 266 265 265 265 267 271 276 279 280 280 281 284 285 285 288
278 253 249 249 249 248 244 242 243 241 237 234 234 238 242 246 247 246 248 253 254 252 251 252 254 257 260 262 263 263 262 260 260 260 262 263 262 259 259 260 259 257 256 260 267 270 271 272 272 272 270 268 267 266 264 262 260 258 257 256 257 259 261 261 259 258 257 259 262 263 263 264 264 263 265 270 275 279 281 283 283 282 282 283 286
317 285 258 248 246 247 245 243 243 242 238 234 234 239 244 245 245 246 249 253 254 253 252 252 254 257 260 263 265 265 265 265 264 264 265 266 263 258 258 260 260 259 258 260 267 272 272 274 274 274 273 271 270 269 267 264 261 258 256 254 255 257 258 258 257 255 255 256 260 261 261 263 264 263 263 267 272 278 281 282 280 280 281 282 282
302 306 290 255 242 241 241 242 242 242 242 240 238 244 250 248 248 250 252 253 254 252 252 254 258 262 263 263 267 268 268 269 269 269 270 269 264 259 259 259 260 261 261 262 269 274 275 275 275 274 274 273 273 272 271 268 264 260 256 253 253 254 256 256 255 253 253 255 258 260 261 262 263 263 265 267 269 273 276 278 278 279 279 279 280
269 284 293 276 249 238 236 239 240 243 245 240 236 244 252 253 253 255 256 255 252 248 250 255 261 264 263 264 270 273 274 275 273 272 273 272 265 261 260 260 261 263 263 266 272 276 275 275 276 275 275 274 273 273 273 272 269 264 258 253 251 251 252 254 253 252 252 254 257 260 262 263 263 266 268 267 267 269 273 276 278 278 278 279 278
256 260 264 267 261 246 238 238 238 240 244 240 235 240 246 248 252 255 257 256 252 250 255 259 261 262 261 261 265 269 277 281 278 273 273 272 268 264 263 263 263 264 266 271 274 276 276 276 275 275 275 274 273 273 274 275 273 267 261 256 252 250 250 251 252 252 253 256 261 265 267 267 267 269 270 268 267 269 271 273 274 273 273 270 267
257 256 256 256 257 254 247 243 240 238 239 237 236 238 239 241 245 249 251 250 248 250 255 259 262 264 267 267 264 264 275 284 277 269 268 269 267 265 264 265 265 266 269 272 275 277 278 277 277 277 275 274 273 272 274 276 274 269 263 258 254 251 249 249 251 252 254 258 263 267 269 269 269 269 268 267 266 265 265 266 265 264 262 259 257
257 257 257 255 255 255 252 250 246 241 237 235 235 236 237 238 240 243 244 243 243 247 254 259 263 267 270 270 268 268 275 279 268 259 258 261 261 262 264 266 267 270 272 275 277 279 280 280 280 279 276 274 272 271 271 272 272 269 266 263 259 255 251 248 248 250 253 256 261 265 267 267 267 267 266 265 263 261 259 259 261 261 257 254 253
255 259 262 262 260 257 254 252 250 246 242 237 235 235 237 238 239 241 243 244 246 250 255 258 260 262 264 266 266 268 272 273 267 259 256 257 259 261 263 265 266 270 273 275 278 280 282 282 281 279 278 276 275 272 268 268 269 269 266 265 263 258 253 250 247 248 250 254 258 262 263 264 265 266 265 264 263 260 258 259 263 263 257 254 254
257 259 261 262 261 256 253 251 248 247 245 242 237 233 231 233 237 239 241 242 243 245 249 253 255 255 256 258 260 262 264 266 268 266 262 261 261 262 262 263 264 266 269 273 276 278 280 281 279 278 279 279 278 274 269 265 264 265 265 263 261 260 259 257 252 248 248 252 257 261 263 264 265 265 265 264 263 262 261 262 263 260 258 256 252
261 259 256 255 255 254 253 251 247 244 244 245 244 239 231 227 230 233 233 232 231 233 240 250 253 252 252 253 257 260 261 260 262 265 265 264 263 262 262 262 263 265 267 270 273 275 278 280 281 280 280 279 278 276 272 267 261 260 262 260 257 259 264 264 258 252 250 253 257 260 261 260 260 260 262 263 263 263 263 262 260 258 258 256 250
261 260 258 256 254 253 253 252 250 246 243 242 243 242 238 233 229 229 229 226 224 227 235 246 253 255 253 252 255 258 259 258 259 261 262 262 261 261 260 259 260 262 265 267 269 271 274 276 278 280 280 276 272 270 271 269 263 258 257 256 255 258 262 262 260 255 251 252 255 256 256 256 255 255 256 260 263 264 263 260 259 258 257 254 252
257 257 258 258 256 254 252 252 251 249 246 243 240 239 239 238 233 230 229 228 227 228 232 240 247 253 255 255 255 258 259 258 258 259 260 260 260 260 259 258 257 257 260 263 265 267 269 270 271 275 278 275 269 266 268 269 264 258 254 255 257 259 258 257 256 253 251 250 252 254 253 252 253 253 255 259 264 266 264 259 256 257 257 256 257
255 254 255 256 255 255 253 252 251 251 249 246 243 239 237 237 236 234 232 232 231 230 230 235 240 245 251 254 257 260 262 261 260 259 258 257 258 259 261 260 258 256 255 256 261 267 271 271 269 269 272 273 270 268 268 268 265 261 257 257 259 259 259 257 254 252 251 249 249 251 251 251 254 255 256 259 264 268 269 263 256 256 257 256 256
255 252 251 251 251 252 252 251 250 250 249 248 247 244 240 237 236 236 235 235 236 235 235 237 239 242 248 252 256 260 263 264 263 262 262 260 257 258 259 258 257 257 255 253 257 264 269 272 272 268 268 271 272 270 269 268 267 264 262 260 259 258 258 258 255 253 253 251 250 250 252 254 256 255 254 257 263 267 268 262 256 253 254 253 252
256 252 250 250 250 250 249 248 248 249 249 249 248 247 245 242 239 237 237 237 237 237 238 240 242 244 248 251 255 258 261 264 264 265 267 265 260 257 257 255 254 255 255 256 259 263 266 272 277 275 272 272 272 271 269 267 266 265 264 262 261 259 259 259 259 257 256 255 253 252 252 255 257 255 253 253 257 259 259 255 251 248 248 248 246
259 253 250 249 249 250 250 249 248 247 246 247 247 246 246 246 245 242 241 241 240 239 239 241 244 247 248 251 255 257 259 262 263 263 265 265 262 259 256 255 253 254 256 258 261 266 267 267 270 273 274 273 272 271 270 268 266 265 263 261 261 261 260 260 259 259 259 259 258 255 252 253 256 257 255 250 249 253 255 252 249 247 246 247 246
278 263 255 249 246 246 248 250 249 247 245 243 243 242 242 243 246 247 245 243 242 240 239 241 243 246 248 251 254 256 257 257 259 260 260 262 264 263 259 256 253 252 253 254 258 270 274 268 263 266 272 273 272 271 269 267 265 264 262 261 261 261 261 260 259 259 260 261 261 260 256 252 252 254 253 248 249 255 255 249 247 245 245 246 244
313 286 269 257 248 242 243 245 246 245 244 242 240 238 236 234 237 242 245 245 244 243 241 241 244 247 249 252 253 255 256 256 256 257 258 260 263 265 264 262 260 257 255 255 260 270 273 267 261 261 265 268 270 269 266 264 263 263 262 261 260 261 262 262 261 260 260 259 260 261 259 254 251 251 253 253 255 256 253 246 244 243 243 242 240
341 320 288 265 254 246 240 239 238 237 237 237 237 237 236 231 229 235 241 243 242 241 241 243 247 250 253 254 255 257 258 258 259 261 261 261 263 265 267 269 270 269 268 268 269 270 266 262 259 259 261 265 267 267 264 262 262 262 260 258 258 258 259 261 260 260 260 260 260 262 262 258 254 252 254 255 255 253 249 244 241 240 240 240 240
350 344 324 272 251 244 238 232 230 228 225 225 228 231 231 228 226 228 232 234 235 237 241 244 248 250 251 252 254 257 260 262 263 264 263 263 265 266 268 270 272 273 275 276 273 269 263 261 260 260 262 266 267 266 264 262 261 260 259 257 257 256 256 258 259 260 260 259 260 263 264 262 257 254 253 253 252 250 245 241 238 238 238 239 241
14 12 11 352 245 229 227 223 221 220 218 219 222 224 221 217 217 220 225 229 233 237 242 246 249 252 253 254 255 258 262 265 266 266 265 265 267 269 269 271 273 275 278 280 276 270 265 262 261 262 264 267 268 267 265 263 261 260 259 258 257 256 255 255 256 257 258 258 258 259 260 259 256 254 253 253 252 249 245 240 236 235 236 237 239
29 29 26 32 69 161 189 200 202 202 204 206 209 211 210 209 210 216 223 230 234 238 242 245 247 250 253 256 258 260 264 266 267 267 268 268 269 269 271 273 275 277 280 280 276 271 267 264 263 264 266 267 266 266 266 264 262 261 260 259 258 257 256 256 256 256 256 256 257 257 258 257 254 253 253 253 251 247 244 240 237 235 236 236 236
35 38 39 44 61 87 116 144 159 165 171 177 181 185 191 196 201 209 218 227 235 241 245 248 250 252 255 258 261 264 267 268 269 270 271 271 271 271 271 272 274 275 276 275 272 269 265 263 263 266 269 268 266 265 265 264 263 262 260 259 259 259 260 261 259 256 254 254 256 257 258 257 254 252 252 251 249 246 243 240 238 237 236 234 231
37 46 51 53 58 66 79 98 117 129 139 147 152 153 157 165 176 186 196 207 221 235 244 249 254 258 262 265 266 268 270 271 271 271 271 272 272 272 271 270 270 270 271 272 271 269 265 262 263 266 268 267 266 265 265 264 263 261 259 259 260 259 260 260 258 255 254 254 255 255 255 255 254 254 253 251 247 243 240 239 239 237 234 230 227
35 45 53 58 61 64 70 78 89 98 106 112 116 119 121 127 136 143 148 152 156 163 191 235 256 267 272 275 276 275 274 274 272 269 268 268 269 270 270 269 268 268 269 270 269 268 266 265 265 265 264 262 261 263 264 264 263 261 261 260 258 257 257 256 254 252 252 252 253 254 254 253 253 254 253 250 246 242 239 237 238 238 235 230 228
34 41 49 55 60 65 69 73 79 84 89 92 95 97 99 101 102 102 102 100 98 93 86 77 64 36 344 313 296 283 278 277 275 270 266 265 265 267 267 266 264 263 263 263 264 265 266 265 261 258 257 256 256 258 260 261 262 262 261 259 256 255 256 255 252 251 253 254 255 252 250 250 251 251 250 248 246 244 240 238 239 239 236 232 230
36 41 48 54 59 63 67 70 74 78 81 84 86 86 87 87 87 86 85 83 82 83 84 87 89 83 73 62 49 36 23 345 285 265 258 257 258 261 265 266 266 264 261 263 268 272 272 265 255 250 250 251 252 255 258 260 261 261 260 257 255 254 254 252 250 252 255 257 255 251 248 249 251 251 249 247 245 243 239 236 237 237 235 233 231
39 42 46 51 55 60 65 68 70 72 74 75 77 78 79 79 78 78 77 76 76 76 78 81 82 79 78 77 75 75 81 87 86 84 81 75 51 36 37 13 325 297 284 284 288 289 284 273 262 256 254 254 255 257 258 259 259 258 255 252 250 248 246 245 247 248 249 252 255 254 254 255 254 251 249 247 246 244 239 236 234 233 231 231 229
41 43 46 47 48 54 61 64 65 66 68 69 70 71 72 73 73 74 75 76 76 75 74 75 74 73 73 76 79 85 92 87 78 75 76 77 77 75 73 71 66 54 33 3 332 303 280 273 268 263 260 259 257 255 253 251 249 247 242 238 235 234 234 236 240 242 244 249 254 255 257 258 256 252 250 249 247 244 241 237 235 232 231 230 229
40 42 44 44 44 49 56 60 60 62 65 66 66 67 67 69 71 72 73 74 75 74 73 72 70 69 68 68 69 71 73 73 72 71 71 72 73 73 72 71 70 67 64 57 48 43 55 67 54 274 259 250 240 232 229 226 223 223 223 219 216 217 222 228 232 235 239 244 247 250 254 256 254 251 249 248 247 245 243 242 239 235 234 234 233
41 43 45 45 45 47 53 57 59 61 62 63 63 64 66 68 70 71 72 73 74 73 73 72 70 69 67 66 66 68 70 70 69 68 66 65 65 66 67 67 65 64 63 62 59 55 54 57 63 70 78 87 95 100 114 136 149 151 154 159 166 178 193 205 213 217 222 230 239 246 252 255 255 254 253 252 249 247 245 245 242 237 235 234 234
42 45 46 47 47 49 52 55 58 61 62 62 62 64 66 67 68 69 71 72 72 72 71 70 68 65 63 62 62 64 66 68 67 66 66 65 65 65 66 65 63 60 59 59 59 58 57 58 59 61 68 76 82 87 92 97 97 93 92 98 106 118 133 155 179 197 210 223 235 243 250 255 259 258 255 253 252 249 246 245 242 238 235 233 233
43 47 49 50 51 52 53 54 55 58 60 61 62 63 64 65 66 68 70 70 71 70 68 66 64 61 59 58 57 58 60 61 62 63 64 64 64 65 65 65 64 61 60 60 61 60 60 61 60 58 57 59 65 72 81 89 94 95 97 97 94 89 89 93 101 120 153 184 209 226 237 244 249 250 249 248 248 248 246 244 241 239 237 237 237
44 47 50 52 54 55 55 55 56 58 59 59 60 60 60 61 62 64 65 66 66 66 65 63 61 59 57 55 54 55 57 57 58 60 61 62 63 64 65 66 66 63 60 59 59 58 57 56 56 56 58 56 54 56 62 70 80 85 85 81 74 68 67 73 87 104 120 138 154 176 211 227 235 242 247 248 249 249 247 245 244 243 242 241 240
44 46 48 50 52 54 54 55 56 58 59 59 59 59 59 58 58 58 58 59 60 60 60 59 57 55 55 54 54 55 56 56 57 58 58 59 61 62 63 63 63 61 60 59 57 56 55 51 48 48 51 51 49 48 49 55 64 68 65 60 57 56 56 58 65 73 78 87 100 107 116 198 243 252 253 252 252 251 248 245 244 243 242 241 237
40 44 46 47 49 51 52 52 53 54 55 56 58 58 58 58 57 57 56 56 55 55 56 57 55 53 52 52 53 55 56 56 57 58 59 59 60 60 60 60 59 58 58 56 54 53 53 51 47 45 46 45 45 45 45 46 48 46 41 37 39 43 45 46 50 53 53 53 60 69 76 87 101 199 235 236 234 233 233 233 232 232 233 232 230
34 39 43 46 47 48 48 49 49 49 50 52 54 55 55 56 57 57 57 57 56 55 55 55 56 55 53 52 52 54 56 57 57 59 61 61 61 60 58 57 56 55 54 53 52 50 48 47 45 44 43 42 41 41 41 40 38 36 32 27 25 28 30 29 25 18 14 17 30 48 70 97 116 141 184 209 219 223 224 227 229 229 226 224 223
32 35 39 43 46 48 48 47 46 46 47 48 49 50 50 50 52 53 53 53 55 56 56 55 55 55 56 55 53 55 58 59 58 58 59 60 60 60 59 57 56 54 52 51 50 47 45 43 41 40 40 39 39 38 38 36 34 34 31 27 25 26 27 20 7 356 353 347 327 297 276 238 249 254 240 235 235 234 233 238 242 235 225 220 219
32 34 35 37 39 42 45 46 45 46 46 45 45 46 46 44 44 44 44 45 46 47 48 49 48 49 51 53 53 53 56 59 58 56 55 55 55 54 54 54 53 53 52 51 51 50 47 44 42 41 40 40 39 40 41 40 37 35 33 29 25 22 20 16 10 4 3 356 335 307 281 263 269 287 289 281 267 250 242 246 257 258 239 222 218
31 33 35 36 37 38 40 41 42 44 44 42 42 42 43 42 40 39 39 39 40 40 39 39 38 37 39 42 44 44 45 48 50 50 51 50 49 47 45 43 42 43 44 44 46 48 49 49 48 45 43 41 40 40 40 39 37 35 33 30 25 19 15 14 10 5 3 4 2 355 338 300 281 280 284 290 294 284 263 252 254 260 255 237 223
31 33 35 36 38 39 38 38 39 39 39 38 37 36 36 37 37 37 36 35 35 36 36 36 34 32 31 31 33 34 34 36 38 39 40 39 38 38 38 35 32 31 31 30 29 32 37 44 49 50 47 43 40 39 39 38 37 35 34 32 29 27 26 24 19 11 2 357 357 1 4 355 331 313 297 279 270 278 285 275 255 250 250 239 221